Weather History for Fort Myers, FL

Change the Weather History Date:

Saturday, April 6, 2013

  Actual Average Record
Temperature  
Mean Temperature 70 °F 72 °F  
Max Temperature 81 °F 83 °F 91 °F (1999)
Min Temperature 59 °F 62 °F 43 °F (1944)
Degree Days  
Heating Degree Days 0 0  
Month to date heating degree days 0 0  
Since 1 July heating degree days 201 284  
Cooling Degree Days 5 8  
Month to date cooling degree days 49 44  
Year to date cooling degree days 431 405  
Growing Degree Days 20 (Base 50)    
Moisture  
Dew Point 56 °F    
Average Humidity 71    
Maximum Humidity 84    
Minimum Humidity 42    
Precipitation  
Precipitation 0.00 in 0.08 in 2.23 in (1995)
Month to date precipitation 1.26 0.50  
Year to date precipitation 4.52 7.47  
Sea Level Pressure  
Sea Level Pressure 30.03 in    
Wind  
Wind Speed 8 mph (NNE)    
Max Wind Speed 16 mph    
Max Gust Speed 21 mph    
Visibility 10 miles    
Events      
T = Trace of Precipitation, MM = Missing Value Source: NWS Daily Summary

Daily Weather History Graph

Daily Weather History Graph

Search for Another Location

Airport:

Trip Planner

Search our weather history database for the weather conditions in past years. The results will help you decide how hot, cold, wet, or windy it might be!

Date:

Astronomy

Apr. 06, 2013 Rise Set
Actual Time 7:12 AM EDT 7:47 PM EDT
Civil Twilight 6:49 AM EDT 8:10 PM EDT
Nautical Twilight 6:21 AM EDT 8:38 PM EDT
Astronomical Twilight 5:54 AM EDT 9:05 PM EDT
Moon 4:35 AM EDT (4/6) 4:32 PM EDT (4/6)
Length of Visible Light 13h 21m
Length of Day
12h 34m
Waning Crescent, 15% of the Moon is Illuminated
Apr 6
Waning Crescent
Apr 10
New
Apr 18
First Quarter
Apr 25
Full
May 2
Last Quarter

Hourly Weather History & Observations

Time (EDT) Temp. Heat Index Dew Point Humidity Pressure Visibility Wind Dir Wind Speed Gust Speed Precip Events Conditions
12:53 AM 62.1 °F - 55.0 °F 78% 29.99 in 10.0 mi NNW 8.1 mph - N/A   Overcast
1:06 AM 62.6 °F - 55.4 °F 77% 29.98 in 10.0 mi NNW 10.4 mph - N/A   Overcast
1:53 AM 63.0 °F - 55.9 °F 78% 29.99 in 10.0 mi NNW 10.4 mph - N/A   Overcast
2:20 AM 62.6 °F - 55.4 °F 77% 29.98 in 10.0 mi North 11.5 mph - N/A   Overcast
2:53 AM 63.0 °F - 57.0 °F 81% 29.99 in 10.0 mi North 8.1 mph - N/A   Overcast
3:53 AM 62.1 °F - 57.0 °F 84% 29.99 in 10.0 mi NNE 13.8 mph - N/A   Overcast
4:19 AM 62.6 °F - 57.2 °F 82% 29.98 in 10.0 mi North 9.2 mph - N/A   Mostly Cloudy
4:36 AM 62.6 °F - 57.2 °F 82% 29.98 in 10.0 mi NNE 11.5 mph - N/A   Mostly Cloudy
4:53 AM 62.1 °F - 55.9 °F 80% 29.98 in 10.0 mi NE 9.2 mph - N/A   Overcast
5:53 AM 61.0 °F - 55.9 °F 83% 30.01 in 10.0 mi North 10.4 mph - N/A   Overcast
6:53 AM 60.1 °F - 54.0 °F 80% 30.03 in 10.0 mi NNE 10.4 mph - N/A   Overcast
7:37 AM 59.0 °F - 53.6 °F 82% 30.04 in 10.0 mi NNE 10.4 mph - N/A   Partly Cloudy
7:53 AM 60.1 °F - 54.0 °F 80% 30.05 in 10.0 mi NNE 9.2 mph - N/A   Partly Cloudy
8:53 AM 62.1 °F - 54.0 °F 75% 30.07 in 10.0 mi NNE 11.5 mph - N/A   Clear
9:53 AM 64.9 °F - 53.1 °F 65% 30.07 in 10.0 mi NNE 10.4 mph - N/A   Scattered Clouds
10:53 AM 68.0 °F - 53.1 °F 59% 30.07 in 10.0 mi NNE 10.4 mph 19.6 mph N/A   Clear
11:53 AM 70.0 °F - 54.0 °F 57% 30.07 in 10.0 mi East 10.4 mph 19.6 mph N/A   Clear
12:53 PM 72.0 °F - 54.0 °F 53% 30.09 in 10.0 mi ENE 8.1 mph - N/A   Partly Cloudy
1:53 PM 73.9 °F - 54.0 °F 50% 30.06 in 10.0 mi East 6.9 mph - N/A   Scattered Clouds
2:53 PM 79.0 °F - 55.0 °F 44% 30.04 in 10.0 mi Variable 5.8 mph 20.7 mph N/A   Partly Cloudy
3:53 PM 80.1 °F 80.1 °F 55.0 °F 42% 30.03 in 10.0 mi ESE 8.1 mph - N/A   Scattered Clouds
4:53 PM 73.9 °F - 57.9 °F 57% 30.03 in 10.0 mi West 11.5 mph - N/A   Mostly Cloudy
5:53 PM 75.0 °F - 59.0 °F 57% 30.02 in 10.0 mi WNW 8.1 mph - N/A   Scattered Clouds
6:53 PM 71.1 °F - 57.9 °F 63% 30.04 in 10.0 mi NW 10.4 mph - N/A   Clear
7:53 PM 68.0 °F - 59.0 °F 73% 30.06 in 10.0 mi NW 8.1 mph - N/A   Clear
8:53 PM 66.9 °F - 60.1 °F 79% 30.07 in 10.0 mi NNW 3.5 mph - N/A   Clear
9:53 PM 66.9 °F - 60.1 °F 79% 30.09 in 10.0 mi NNW 3.5 mph - N/A   Clear
10:53 PM 66.9 °F - 57.9 °F 73% 30.10 in 10.0 mi NE 4.6 mph - N/A   Clear
11:53 PM 64.9 °F - 57.0 °F 75% 30.10 in 10.0 mi East 3.5 mph - N/A   Clear